Flag for Germany Weather past 2 weeks in Mühlhausen/Thüringen, Thuringia, Germany

Now
70 °F

Partly sunny.


Feels Like: 70 °F
Forecast: 54 / 81 °F
Wind: 2 mph from North

Location: Erfurt-Bindersleben

Current Time: Jul 31, 2014 at 2:11:15 PM

Latest Report: Jul 31, 2014 at 1:00 PM


Visibility: 31 mi

Pressure: 29.97 "Hg

Humidity: 57%

Dew point: 54 °F

Location of Mühlhausen/ThüringenLocation

Historic Weather in Mühlhausen/Thüringen — Graph

°F

Mühlhausen/Thüringen temperature yesterday

Maximum temperature yesterday: 69 °F (at 12:00 PM)
Minimum temperature yesterday: 64 °F (at 11:00 PM)
Average temperature yesterday: 66 °F

Past Weeks' High & Low Weather Summary

 TemperatureHumidityPressure
High88 °F (Jul 19, 5:00 PM)98% (Jul 25, 2:00 AM)30.19 "Hg (Jul 25, 2:00 AM)
Low56 °F (Jul 28, 6:00 AM)27% (Jul 19, 7:00 PM)29.72 "Hg (Jul 30, 3:00 AM)
Average69 °F72%29.94 "Hg
* Reported Jul 16 1:00 PM — Jul 31 1:00 PM, Mühlhausen/Thüringen, Weather by CustomWeather, © 2014

Note: Actual official high and low records may vary slightly from our data, if they occured in-between our weather recording intervals... More about our weather records

Advertising

Mühlhausen/Thüringen weather history for previous 24 hours

 ConditionsComfort  
Time TempWeatherWind HumidityBarometerVisibility
1:00 PM
Jul 31
70 °FPartly sunny.2 mph57%29.97 "Hg31 mi
12:00 PM69 °FPartly sunny.1 mph59%29.98 "Hg28 mi
11:00 AM67 °FPartly sunny.1 mph65%29.99 "Hg25 mi
10:00 AM66 °FScattered clouds.2 mph70%29.99 "Hg25 mi
9:00 AM65 °FPassing clouds.1 mph73%29.99 "Hg16 mi
8:00 AM63 °FPartly sunny.2 mph83%29.99 "Hg16 mi
7:00 AM60 °FPartly sunny.1 mph92%29.97 "Hg16 mi
6:00 AM59 °FScattered clouds.3 mph92%29.96 "Hg12 mi
5:00 AM59 °FPassing clouds.3 mph89%29.95 "Hg11 mi
4:00 AM61 °FOvercast.3 mph88%29.94 "Hg11 mi
3:00 AM62 °FOvercast.2 mph89%29.94 "Hg11 mi
2:00 AM62 °FOvercast.2 mph92%29.94 "Hg11 mi
1:00 AM63 °FOvercast.3 mph91%29.91 "Hg9 mi
12:00 AM64 °FOvercast.3 mph89%29.92 "Hg11 mi
11:00 PM
Jul 30
64 °FOvercast.3 mph88%29.91 "Hg12 mi
10:00 PM65 °FOvercast.3 mph85%29.90 "Hg12 mi
9:00 PM65 °FOvercast.3 mph85%29.88 "Hg12 mi
8:00 PM66 °FOvercast.6 mph83%29.86 "Hg12 mi
7:00 PM66 °FOvercast.6 mph83%29.84 "Hg16 mi
6:00 PM67 °FOvercast.7 mph82%29.83 "Hg16 mi
5:00 PM66 °FLow clouds.3 mph90%29.83 "Hg12 mi
4:00 PM65 °FSprinkles. Low clouds.3 mph92%29.82 "Hg12 mi
3:00 PM67 °FSprinkles. Overcast.3 mph86%29.80 "Hg19 mi
2:00 PM68 °FOvercast.5 mph81%29.79 "Hg19 mi
Weather by CustomWeather, © 2014

See weather overviewHow to use our weather pages